{"data":{"norad_id":57925,"epoch":"2026-09-20T19:21:31.092768Z","epoch_age_seconds":108060,"freshness":"FRESH","line1":"1 57925U 23147N   26263.80660987  .00000525  00000+0  28602-4 0  9991","line2":"2 57925  43.0045 303.7135 0001389 273.8062  86.2631 15.27581213166438","mean_motion":15.27581213,"eccentricity":0.0001389,"inclination_deg":43.0045,"raan_deg":303.7135,"arg_perigee_deg":273.8062,"mean_anomaly_deg":86.2631,"bstar":2.8602e-5,"rev_number":16643,"period_min":94.26667385965,"perigee_km":482.09244563945,"apogee_km":483.99848212792,"semimajor_km":6861.1824638837,"source":"CELESTRAK","updated_at":"2026-09-21T09:00:33.742427Z"}}